EUTELSAT KONNECT

Last updated on Tue Sep 22 2026 00:03:15 GMT+0000 (Coordinated Universal Time)

1 45027U 20005B 26264.20540942 .00000047 00000+0 00000+0 0 9990 2 45027 0.0636 98.9123 0002224 109.1685 233.1783 1.00275989 25293
UTC large
Height (km)
Speed (km/s)
/
Latitude / Longitude
Inclination (degrees)
Orbital Period (minutes)
Azimuth
Elevation
Range (km)
Doppler Factor

Next 0 passes for location: London (51.5072 / 0.1276)

No passes found over London.
EUTELSAT KONNECT